Regional Weather Roundup
Issued by NWS

Home | Current Version | Previous Version | Graphics & Text | Print | Product List | Glossary On
Versions: 1 2 3 4 5 6 7 8 9 10 11 12 13 14 15 16 17 18 19 20 21 22 23 24 25 26 27 28 29 30 31 32 33 34 35 36 37 38 39 40 41 42 43 44 45 46 47 48 49 50
000
ASUS43 KMKX 200700
RWRWI

WISCONSIN REGIONAL WEATHER ROUNDUP
NATIONAL WEATHER SERVICE MILWAUKEE/SULLIVAN WI
100 AM CST SAT DEC 20 2014

NOTE: "FAIR" INDICATES FEW OR NO CLOUDS BELOW 12,000 FEET WITH NO
SIGNIFICANT WEATHER AND/OR OBSTRUCTIONS TO VISIBILITY.

WIZ001-002-006>008-014>016-023>028-200800-
NORTHWEST WISCONSIN

CITY           SKY/WX    TMP DP  RH WIND       PRES   REMARKS
SUPERIOR ARPT  CLOUDY    27  24  89 S3        30.17S
ASHLAND        CLOUDY    26  22  84 S3        30.19F
HAYWARD        CLOUDY    25  21  85 SE5       30.17S WCI  19
SIREN          CLOUDY    27  23  84 S8        30.16F WCI  19
CUMBERLAND     CLOUDY    27  23  86 SE7       30.16S WCI  19
RICE LAKE      CLOUDY    27  23  83 SE6       30.19F WCI  21
CHETEK         CLOUDY    26  23  86 SE6       30.19S WCI  20
LADYSMITH      CLOUDY    26  23  89 S3        30.20S
EAU CLAIRE     CLOUDY    28  21  75 SE3       30.20S
MENOMONIE      CLOUDY    28  24  82 SE5       30.20S WCI  23
NEW RICHMOND   CLOUDY    28  25  89 S8        30.17S WCI  20
OSCEOLA        CLOUDY    29  25  86 SE8       30.19F WCI  21
$$

WIZ003>005-009-010-017-018-200800-
NORTH CENTRAL WISCONSIN

CITY           SKY/WX    TMP DP  RH WIND       PRES   REMARKS
MANITOWISH WTR CLOUDY    21  21  99 CALM      30.16F
ARBOR VITAE    CLOUDY    23  21  91 CALM      30.17S
WOODRUFF       CLOUDY    23  21  91 CALM      30.17S
RHINELANDER    CLOUDY    20  18  92 SE3       30.18S
EAGLE RIVER    CLOUDY    19  18  98 CALM      30.17F FOG
LAND O LAKES   CLOUDY    18  17  93 CALM      30.18S
PHILLIPS       CLOUDY    23  20  91 S3        30.16F
TOMAHAWK       CLOUDY    22  20  91 CALM      30.19S
MEDFORD        CLOUDY    23  20  91 S6        30.19S WCI  15
MERRILL        CLOUDY    23  21  91 S3        30.20S
$$

WIZ029-030-035-036-043>047-200800-
CENTRAL WISCONSIN

CITY           SKY/WX    TMP DP  RH WIND       PRES   REMARKS
WAUSAU         CLOUDY    23  20  88 S6        30.21S WCI  16
MOSINEE        CLOUDY    23  23 100 S6        30.23S WCI  16
MARSHFIELD     CLOUDY    24  20  84 S8        30.21S WCI  15
STEVENS POINT  CLOUDY    22  19  89 S7        30.24S WCI  13
WAUPACA        CLOUDY    27  22  82 CALM      30.26S
WAUTOMA        NOT AVBL
WISC RAPIDS    CLOUDY    23  19  85 S5        30.25F WCI  17
CAMP DOUGLAS   NOT AVBL
$$

WIZ011>013-019>022-031-037>040-048>050-200800-
NORTHEAST WISCONSIN

CITY           SKY/WX    TMP DP  RH WIND       PRES   REMARKS
ANTIGO         CLOUDY    16  15  95 CALM      30.20S
SHAWANO        CLOUDY    19  17  90 CALM      30.26S
OCONTO         PTCLDY    14  13  96 CALM      30.27S
STURGEON BAY   PTCLDY    19  18  93 CALM      30.28S
GREEN BAY      MOCLDY    20  18  92 CALM      30.27S
MANITOWOC      NOT AVBL
APPLETON       PTCLDY    21  18  86 CALM      30.26S
CLINTONVILLE   MOCLDY    19  18  93 CALM      30.26S
OSHKOSH        PTCLDY    22  17  81 W5        30.26S WCI  16
$$

WIZ032>034-041-042-053>061-200800-
SOUTHWEST WISCONSIN

CITY           SKY/WX    TMP DP  RH WIND       PRES   REMARKS
LA CROSSE        N/A     30  21  69 S8        30.24S WCI  22
SPARTA         CLOUDY    28  22  77 CALM      30.25S
VIROQUA        CLOUDY    27  23  85 S6        30.21S WCI  20
BOSCOBEL       CLOUDY    29  22  75 CALM      30.26S
PRAIRIE DU CHI CLOUDY    29  22  74 CALM      30.25S
PLATTEVILLE    CLOUDY    27  24  87 CALM      30.25R
$$

WIZ056-057-062-063-064-067-068-200800-
SOUTH CENTRAL WISCONSIN

CITY           SKY/WX    TMP DP  RH WIND       PRES   REMARKS
REEDSBURG      CLOUDY    24  21  89 CALM      30.24F
BARABOO/DELLS  CLOUDY    25  22  88 E3        30.24F
LONE ROCK      NOT AVBL
MINERAL POINT  CLOUDY    28  25  86 CALM      30.23S
MADISON        CLOUDY    27  21  78 CALM      30.25F
MIDDLETON      CLOUDY    28  23  84 S3        30.25F
WATERTOWN      MOCLDY    19  18  97 CALM      30.26S
MONROE         CLOUDY    27  25  93 CALM      30.23F
JANESVILLE     CLOUDY    28  23  80 CALM      30.26S
$$

WIZ051-052-058>065-066-070>072-200800-
SOUTHEAST WISCONSIN

CITY           SKY/WX    TMP DP  RH WIND       PRES   REMARKS
MILWAUKEE      CLOUDY    28  19  69 W3        30.26S
WAUKESHA       CLOUDY    25  19  80 CALM      30.26S
MILWAUKEE/TIMM CLOUDY    27  21  80 CALM      30.27S
RACINE         CLOUDY    28  21  75 CALM      30.28S
BURLINGTON     CLOUDY    25  20  82 CALM      30.26S
KENOSHA        CLOUDY    27  21  78 W3        30.26S
FOND DU LAC    PTCLDY    20  16  84 CALM      30.26S
SHEBOYGAN      CLOUDY    27  21  78 NW5       30.25F WCI  22
WEST BEND      CLOUDY    23  19  86 CALM      30.25S
JUNEAU         MOCLDY    20  18  94 CALM      30.27S
$$

LSZ147-162-200800-
LAKE SUPERIOR

STATION/POSITION TIME  TEMP    WIND        PRES    WAVE
                       AIR SEA DIR/SP/G            HT/PER
                 (UTC) (F)     (DEG/KT/KT) (MB)    (FT/S)
DEVILS ISLAND    0600   27     170/  5/  7 1023.4F
PORT WING        0640   27     170/  3/  5 1022.0F
SAXON HARBOR     0600   27     190/  4/  8 1022.4F
$$

LMZ867-665-643>646-200800-
LAKE MICHIGAN

STATION/POSITION TIME  TEMP    WIND        PRES    WAVE
                       AIR SEA DIR/SP/G            HT/PER
                 (UTC) (F)     (DEG/KT/KT) (MB)    (FT/S)
CHAMBERS ISLAND  0600   18      CALM  /  2 1024.7S
NORTHPORT PIER   0625   22     220/  3/  5 1025.1R
KEWAUNEE LAKESHO 0600   26     310/  2/  5 1024.0R
SHEBOYGAN LAKESH 0600   29 34  280/  5/  6 1025.8R
PORT WASHINGTON  0640   29     270/  4/  6 1025.4S
MILWAUKEE LAKESH 0600   29     200/  4/  5   N/A
KENOSHA   LAKESH 0600   28     310/  2/  3 1024.7S
$$

TC  - TEMPERATURE IN CELSIUS
VSB - VISIBILITY IN STATUTE MILES
WCI - WIND CHILL INDEX
HX  - HEAT INDEX



USA.gov is the U.S. government's official web portal to all federal, state and local government web resources and services.